• en Suisse
  • Liste des pays
  • À 7 jours
  • Température de l'eau
  • Carte satellitaire
  • Carte météo
  • Widgets météo
  • user-avatar
    Se connecter

    Météo par heure à Ali Sabieh

    Ce jour, 17 Décembre, Dimanche

    Heure Température Précipitation Vent Pression Humidité
    00:00 +21°C° 0 mm 3 m/s 700 mmHg 76%
    01:00 +20°C° 0 mm 3 m/s 699 mmHg 77%
    02:00 +20°C° 0 mm 3 m/s 699 mmHg 79%
    03:00 +20°C° 0 mm 3 m/s 699 mmHg 80%
    04:00 +20°C° 0 mm 3 m/s 699 mmHg 81%
    05:00 +19°C° 0 mm 2 m/s 699 mmHg 82%
    06:00 +19°C° 0 mm 2 m/s 699 mmHg 84%
    07:00 +20°C° 0 mm 3 m/s 700 mmHg 77%
    08:00 +21°C° 0 mm 4 m/s 700 mmHg 71%
    09:00 +22°C° 0 mm 4 m/s 701 mmHg 64%
    10:00 +23°C° 0 mm 5 m/s 701 mmHg 60%
    11:00 +26°C° 0 mm 5 m/s 701 mmHg 55%
    12:00 +27°C° 0 mm 6 m/s 701 mmHg 50%
    13:00 +27°C° 0 mm 7 m/s 700 mmHg 51%
    14:00 +27°C° 0 mm 7 m/s 700 mmHg 52%
    15:00 +26°C° 0 mm 8 m/s 699 mmHg 54%
    16:00 +26°C° 0 mm 7 m/s 699 mmHg 57%
    17:00 +24°C° 0 mm 7 m/s 699 mmHg 60%
    18:00 +23°C° 0 mm 7 m/s 699 mmHg 63%
    19:00 +22°C° 0 mm 6 m/s 700 mmHg 65%
    20:00 +22°C° 0 mm 6 m/s 700 mmHg 67%
    21:00 +21°C° 0 mm 5 m/s 701 mmHg 69%
    22:00 +21°C° 0 mm 5 m/s 701 mmHg 72%
    23:00 +21°C° 0 mm 5 m/s 701 mmHg 75%

    Demain, 18 Décembre, Lundi

    Heure Température Précipitation Vent Pression Humidité
    00:00 +20°C° 0 mm 4 m/s 701 mmHg 77%
    01:00 +20°C° 0 mm 4 m/s 700 mmHg 78%
    02:00 +20°C° 0 mm 4 m/s 700 mmHg 78%
    03:00 +20°C° 0 mm 4 m/s 700 mmHg 79%
    04:00 +20°C° 0 mm 3 m/s 700 mmHg 79%
    05:00 +19°C° 0 mm 3 m/s 700 mmHg 80%
    06:00 +19°C° 0 mm 3 m/s 701 mmHg 80%
    07:00 +20°C° 0 mm 3 m/s 701 mmHg 74%
    08:00 +21°C° 0 mm 4 m/s 702 mmHg 68%
    09:00 +22°C° 0 mm 5 m/s 703 mmHg 62%
    10:00 +24°C° 0 mm 6 m/s 702 mmHg 56%
    11:00 +26°C° 0 mm 6 m/s 702 mmHg 50%
    12:00 +27°C° 0 mm 7 m/s 702 mmHg 44%
    13:00 +27°C° 0 mm 7 m/s 701 mmHg 45%
    14:00 +27°C° 0 mm 8 m/s 700 mmHg 45%
    15:00 +27°C° 0 mm 8 m/s 700 mmHg 46%
    16:00 +26°C° 0 mm 8 m/s 700 mmHg 51%
    17:00 +24°C° 0 mm 8 m/s 699 mmHg 57%
    18:00 +23°C° 0 mm 7 m/s 699 mmHg 63%
    19:00 +22°C° 0 mm 7 m/s 700 mmHg 66%
    20:00 +22°C° 0 mm 7 m/s 700 mmHg 68%
    21:00 +21°C° 0 mm 7 m/s 701 mmHg 71%
    22:00 +21°C° 0 mm 6 m/s 701 mmHg 73%
    23:00 +21°C° 0 mm 6 m/s 701 mmHg 74%

    Après-demain, 19 Décembre, Mardi

    Heure Température Précipitation Vent Pression Humidité
    00:00 +21°C° 0 mm 5 m/s 701 mmHg 75%
    01:00 +20°C° 0 mm 5 m/s 700 mmHg 76%
    02:00 +20°C° 0 mm 5 m/s 700 mmHg 78%
    03:00 +20°C° 0 mm 4 m/s 700 mmHg 79%
    04:00 +20°C° 0 mm 4 m/s 700 mmHg 80%
    05:00 +19°C° 0 mm 4 m/s 700 mmHg 81%
    06:00 +19°C° 0 mm 3 m/s 701 mmHg 81%
    07:00 +20°C° 0 mm 4 m/s 701 mmHg 74%
    08:00 +21°C° 0 mm 6 m/s 702 mmHg 67%
    09:00 +23°C° 0 mm 7 m/s 703 mmHg 60%
    10:00 +24°C° 0 mm 7 m/s 703 mmHg 54%
    11:00 +26°C° 0 mm 8 m/s 703 mmHg 49%
    12:00 +27°C° 0 mm 8 m/s 702 mmHg 43%
    13:00 +27°C° 0 mm 8 m/s 702 mmHg 42%
    14:00 +27°C° 0 mm 8 m/s 701 mmHg 40%
    15:00 +27°C° 0 mm 8 m/s 700 mmHg 39%
    16:00 +26°C° 0 mm 8 m/s 700 mmHg 43%
    17:00 +24°C° 0 mm 8 m/s 700 mmHg 47%
    18:00 +23°C° 0 mm 7 m/s 700 mmHg 50%
    19:00 +22°C° 0 mm 7 m/s 701 mmHg 54%
    20:00 +22°C° 0 mm 6 m/s 701 mmHg 58%
    21:00 +21°C° 0 mm 6 m/s 702 mmHg 61%
    22:00 +21°C° 0 mm 6 m/s 702 mmHg 63%
    23:00 +20°C° 0 mm 5 m/s 701 mmHg 64%

    20 Décembre, Mercredi

    Heure Température Précipitation Vent Pression Humidité
    00:00 +20°C° 0 mm 5 m/s 701 mmHg 65%
    01:00 +20°C° 0 mm 4 m/s 701 mmHg 66%
    02:00 +19°C° 0 mm 4 m/s 701 mmHg 66%
    03:00 +19°C° 0 mm 3 m/s 700 mmHg 66%
    04:00 +19°C° 0 mm 3 m/s 701 mmHg 65%
    05:00 +18°C° 0 mm 3 m/s 701 mmHg 64%
    06:00 +18°C° 0 mm 3 m/s 701 mmHg 63%
    07:00 +19°C° 0 mm 4 m/s 702 mmHg 58%
    08:00 +21°C° 0 mm 5 m/s 703 mmHg 54%
    09:00 +22°C° 0 mm 6 m/s 704 mmHg 49%
    10:00 +23°C° 0 mm 7 m/s 703 mmHg 43%
    11:00 +24°C° 0 mm 7 m/s 703 mmHg 38%
    12:00 +27°C° 0 mm 8 m/s 703 mmHg 32%
    13:00 +27°C° 0 mm 8 m/s 702 mmHg 31%
    14:00 +27°C° 0 mm 8 m/s 702 mmHg 30%
    15:00 +27°C° 0 mm 8 m/s 701 mmHg 28%
    16:00 +26°C° 0 mm 8 m/s 701 mmHg 32%
    17:00 +24°C° 0 mm 7 m/s 701 mmHg 35%
    18:00 +23°C° 0 mm 7 m/s 701 mmHg 38%
    19:00 +22°C° 0 mm 7 m/s 702 mmHg 42%
    20:00 +22°C° 0 mm 6 m/s 702 mmHg 46%
    21:00 +21°C° 0 mm 6 m/s 703 mmHg 51%
    22:00 +21°C° 0 mm 6 m/s 703 mmHg 54%
    23:00 +20°C° 0 mm 5 m/s 703 mmHg 57%

    21 Décembre, Jeudi

    Heure Température Précipitation Vent Pression Humidité
    00:00 +20°C° 0 mm 5 m/s 702 mmHg 60%
    01:00 +20°C° 0 mm 4 m/s 702 mmHg 61%
    02:00 +19°C° 0 mm 4 m/s 702 mmHg 62%
    03:00 +19°C° 0 mm 3 m/s 702 mmHg 64%
    04:00 +19°C° 0 mm 3 m/s 702 mmHg 66%
    05:00 +18°C° 0 mm 2 m/s 702 mmHg 68%
    06:00 +18°C° 0 mm 2 m/s 702 mmHg 70%
    07:00 +19°C° 0 mm 3 m/s 703 mmHg 65%
    08:00 +21°C° 0 mm 5 m/s 704 mmHg 61%
    09:00 +22°C° 0 mm 6 m/s 704 mmHg 56%
    10:00 +23°C° 0 mm 6 m/s 704 mmHg 51%
    11:00 +24°C° 0 mm 7 m/s 703 mmHg 46%
    12:00 +27°C° 0 mm 8 m/s 703 mmHg 42%
    13:00 +27°C° 0 mm 8 m/s 702 mmHg 41%
    14:00 +27°C° 0 mm 8 m/s 702 mmHg 41%
    15:00 +27°C° 0 mm 7 m/s 701 mmHg 41%
    16:00 +26°C° 0 mm 7 m/s 701 mmHg 44%
    17:00 +24°C° 0 mm 7 m/s 701 mmHg 48%
    18:00 +23°C° 0 mm 7 m/s 701 mmHg 51%
    19:00 +22°C° 0 mm 6 m/s 702 mmHg 53%
    20:00 +22°C° 0 mm 6 m/s 702 mmHg 56%
    21:00 +21°C° 0 mm 6 m/s 702 mmHg 59%
    22:00 +21°C° 0 mm 5 m/s 702 mmHg 60%
    23:00 +20°C° 0 mm 4 m/s 702 mmHg 62%

    22 Décembre, Vendredi

    Heure Température Précipitation Vent Pression Humidité
    00:00 +20°C° 0 mm 3 m/s 701 mmHg 64%
    01:00 +19°C° 0 mm 2 m/s 701 mmHg 65%
    02:00 +19°C° 0 mm 2 m/s 701 mmHg 66%
    03:00 +19°C° 0 mm 2 m/s 700 mmHg 68%
    04:00 +18°C° 0 mm 2 m/s 701 mmHg 69%
    05:00 +18°C° 0 mm 2 m/s 701 mmHg 70%
    06:00 +18°C° 0 mm 2 m/s 701 mmHg 71%
    07:00 +19°C° 0 mm 3 m/s 701 mmHg 66%
    08:00 +20°C° 0 mm 4 m/s 702 mmHg 62%
    09:00 +22°C° 0 mm 5 m/s 702 mmHg 58%
    10:00 +23°C° 0 mm 5 m/s 702 mmHg 52%
    11:00 +24°C° 0 mm 6 m/s 702 mmHg 46%
    12:00 +26°C° 0 mm 6 m/s 701 mmHg 41%
    13:00 +27°C° 0 mm 7 m/s 701 mmHg 40%
    14:00 +27°C° 0 mm 7 m/s 700 mmHg 38%
    15:00 +27°C° 0 mm 7 m/s 699 mmHg 37%
    16:00 +26°C° 0 mm 7 m/s 699 mmHg 41%
    17:00 +24°C° 0 mm 7 m/s 699 mmHg 44%
    18:00 +23°C° 0 mm 6 m/s 699 mmHg 48%
    19:00 +23°C° 0 mm 6 m/s 699 mmHg 52%
    20:00 +22°C° 0 mm 6 m/s 700 mmHg 55%
    21:00 +21°C° 0 mm 5 m/s 700 mmHg 59%
    22:00 +21°C° 0 mm 5 m/s 699 mmHg 61%
    23:00 +20°C° 0 mm 4 m/s 699 mmHg 63%
    Voir plus

    XHprof extension not loaded